Location: Unspecified
(0.0000°N, 0.0000°E)
Time: 10:19:46
(UTC+02:00)

Centaur D-1AR AC-41 - Visible Passes

Search period start: 25 April 2018 00:00
Search period end: 05 May 2018 00:00
Orbit: 640 x 36200 km, 21.5° (Epoch: 24 April)

Date Brightness Start Highest point End Pass type
(mag) Time Alt. Az. Time Alt. Az. Time Alt. Az.
25 Apr 6.9 07:05:30 10° WNW 07:32:27 77° SSW 17:20:30 10° ENE visible
26 Apr 5.7 04:40:34 63° NNW 04:43:12 71° NNE 14:43:22 10° E visible
27 Apr 7.3 02:16:13 14° ENE 02:16:13 14° ENE 02:20:00 10° E visible
27 Apr 10.1 07:22:17 10° ESE 10:19:27 23° ESE 11:42:26 10° ESE visible
28 Apr 5.8 20:24:36 10° W 20:58:10 34° NW 21:04:17 10° NNE visible
30 Apr 6.3 05:50:59 33° WNW 06:02:58 85° SSW 16:01:22 10° E visible
01 May 6.4 03:26:39 46° ENE 03:26:39 46° ENE 13:18:52 10° E visible
02 May 5.8 22:10:07 10° NW 22:13:02 12° NNW 22:15:09 10° N visible
04 May 7.0 07:01:45 10° W 07:35:30 71° SSW 17:16:27 10° ENE visible
